User: anonymous   Login
Location: Voyageurs National Park
(48.5020°N, 92.9292°W)
Time: 05:38:45
(UTC-05:00)
Language:

Terra - Orbit

View from above orbital plane
View from above orbital plane
View from above satellite
View from above satellite

Ground track
Ground track

The orbit data is extracted from the following two-line orbital elements,

1 25994U 99068A   15087.80595354  .00000480  00000-0  11668-3 0  9998
2 25994 098.2161 163.4615 0001473 106.2299 253.9044 14.57106948812517
Epoch (UTC): 28 March 2015 19:20:34
Eccentricity: 0.0001473
inclination: 98.2161°
perigee height: 701 km
apogee height: 703 km
right ascension of ascending node: 163.4615°
argument of perigee: 106.2299°
revolutions per day: 14.57106948
mean anomaly at epoch: 253.9044°
orbit number at epoch: 81251

The dashed part of the orbit path shows where the satellite is in the earth's shadow,  

DLR